Tracking 27086 objects as of 22-Mar-2023
HD Live streaming from Space Station
objects crossing your sky now

STARLINK-2007

Track STARLINK-2007 now!
10-day predictions
STARLINK-2007 is classified as:


NORAD ID: 47602
Int'l Code: 2021-009BG
Perigee: 553.4 km
Apogee: 555.1 km
Inclination: 53.1 °
Period: 95.6 minutes
Semi major axis: 6925 km
RCS: Unknown
Launch date: February 4, 2021
Source: United States (US)
Launch site: AIR FORCE EASTERN TEST RANGE (AFETR)
Your satellite tracking list
Your tracking list is empty




NASA's NSSDC Master Catalog

Two Line Element Set (TLE):
1 47602U 21009BG  23081.53963895  .00040221  00000-0  27018-2 0  9992
2 47602  53.0537 194.0668 0001235  84.1013 276.0117 15.06426124118270
Source of the keplerian elements: AFSPC